Flag for U.S.A. Weather past 2 weeks in Louisville, Kentucky, U.S.A.

Now
30 °F

Ice fog.


Feels Like: 17 °F
Forecast: 29 / 40 °F
Wind: 21 mph from Northwest

Location: Standiford Field

Current Time: Jan 26, 2015 at 2:24:48 AM

Latest Report: Jan 26, 2015 at 1:56 AM


Visibility: 6 mi

Pressure: 29.78 "Hg

Humidity: 89%

Dew point: 27 °F

Location of LouisvilleLocation

Historic Weather in Louisville — Graph

°F

Louisville temperature yesterday

Maximum temperature yesterday: 44 °F (at 11:56 AM)
Minimum temperature yesterday: 37 °F (at 12:56 AM)
Average temperature yesterday: 41 °F

Past Weeks' High & Low Weather Summary

 TemperatureHumidityPressure
High60 °F (Jan 20, 2:56 PM)97% (Jan 12, 1:56 AM)30.57 "Hg (Jan 12, 1:56 AM)
Low20 °F (Jan 11, 12:56 AM)26% (Jan 11, 1:56 PM)29.61 "Hg (Jan 25, 2:56 PM)
Average37 °F67%30.13 "Hg
* Reported Jan 11 12:56 AM — Jan 26 12:56 AM, Louisville, Weather by CustomWeather, © 2014

Note: Actual official high and low records may vary slightly from our data, if they occured in-between our weather recording intervals... More about our weather records

Advertising

Louisville weather history for previous 24 hours

 ConditionsComfort  
Time TempWeatherWind HumidityBarometerVisibility
12:56 AM
Jan 26
33 °FLight snow. Fog.14 mph92%29.74 "Hg2 mi
12:03 AM37 °FDrizzle. Overcast.16 mph89%29.71 "Hg8 mi
11:56 PM
Jan 25
38 °FDrizzle. Mostly cloudy.16 mph86%29.71 "Hg9 mi
10:56 PM40 °FLight rain. Mostly cloudy.13 mph93%29.69 "Hg7 mi
9:56 PM41 °FLight rain. Fog.7 mph93%29.68 "Hg4 mi
8:56 PM42 °FLight rain. Fog.6 mph89%29.67 "Hg5 mi
7:56 PM42 °FLight rain. Fog.7 mph92%29.67 "Hg4 mi
6:56 PM42 °FLight rain. Fog.3 mph92%29.66 "Hg6 mi
5:56 PM42 °FLight rain. Fog.3 mph89%29.65 "Hg6 mi
4:56 PM44 °FLight rain. Overcast.No wind79%29.63 "Hg7 mi
3:56 PM44 °FLight rain. Overcast.3 mph79%29.62 "Hg6 mi
2:56 PM44 °FLight rain. Mostly cloudy.5 mph76%29.61 "Hg7 mi
1:56 PM44 °FLight rain. Overcast.8 mph73%29.64 "Hg9 mi
12:56 PM44 °FLight rain. Overcast.8 mph71%29.68 "Hg10 mi
11:56 AM44 °FLight rain. Mostly cloudy.5 mph68%29.70 "Hg10 mi
10:56 AM43 °FMostly cloudy.9 mph65%29.72 "Hg10 mi
9:56 AM42 °FMostly cloudy.9 mph68%29.72 "Hg10 mi
8:56 AM40 °FMostly cloudy.7 mph73%29.72 "Hg10 mi
7:56 AM39 °FOvercast.7 mph73%29.73 "Hg10 mi
6:56 AM39 °FOvercast.9 mph70%29.72 "Hg10 mi
5:56 AM39 °FOvercast.8 mph70%29.74 "Hg10 mi
4:56 AM41 °FMostly cloudy.6 mph65%29.76 "Hg10 mi
3:56 AM41 °FMostly cloudy.8 mph67%29.77 "Hg10 mi
2:56 AM41 °FOvercast.6 mph67%29.79 "Hg10 mi
Weather by CustomWeather, © 2014

See weather overviewHow to use our weather pages